Weather History for Houlton, ME

Change the Weather History Date:

Tuesday, January 8, 2013

  Actual Average Record
Temperature  
Mean Temperature 12 °F 12 °F  
Max Temperature 32 °F 23 °F 49 °F (2008)
Min Temperature -8 °F 2 °F -22 °F (1988)
Degree Days  
Heating Degree Days 53 53  
Month to date heating degree days 470 417  
Since 1 July heating degree days 3659 3937  
Cooling Degree Days 0 0  
Month to date cooling degree days 0 0  
Year to date cooling degree days 0 0  
Moisture  
Dew Point 8 °F    
Average Humidity 72    
Maximum Humidity 86    
Minimum Humidity 58    
Precipitation  
Precipitation 0.00 in 0.09 in 1.45 in (1958)
Month to date precipitation T 0.73  
Year to date precipitation T 0.73  
Sea Level Pressure  
Sea Level Pressure 30.19 in    
Wind  
Wind Speed 6 mph (SW)    
Max Wind Speed 12 mph    
Max Gust Speed 15 mph    
Visibility 10 miles    
Events      
T = Trace of Precipitation, MM = Missing Value Source: NWS Daily Summary

Daily Weather History Graph

Daily Weather History Graph

Search for Another Location

Airport:

Trip Planner

Search our weather history database for the weather conditions in past years. The results will help you decide how hot, cold, wet, or windy it might be!

Date:

Astronomy

Jan. 08, 2013 Rise Set
Actual Time 7:12 AM EST 4:03 PM EST
Civil Twilight 6:38 AM EST 4:37 PM EST
Nautical Twilight 6:00 AM EST 5:15 PM EST
Astronomical Twilight 5:24 AM EST 5:51 PM EST
Moon 3:40 AM EST (1/8) 1:03 PM EST (1/8)
Length of Visible Light 9h 59m
Length of Day
8h 51m
Waning Crescent, 14% of the Moon is Illuminated
Jan 8
Waning Crescent
Jan 11
New
Jan 18
First Quarter
Jan 26
Full
Feb 3
Last Quarter

Hourly Weather History & Observations

Time (EST) Temp. Windchill Dew Point Humidity Pressure Visibility Wind Dir Wind Speed Gust Speed Precip Events Conditions
12:53 AM -0.0 °F -11.6 °F -11.0 °F 60% 30.29 in 10.0 mi South 5.8 mph - N/A   Clear
1:53 AM 1.9 °F -9.2 °F -9.9 °F 58% 30.25 in 10.0 mi Variable 5.8 mph - N/A   Partly Cloudy
2:34 AM -2.2 °F - -11.2 °F 66% 30.19 in 10.0 mi Calm Calm - N/A   Mostly Cloudy
2:53 AM -2.9 °F - -9.9 °F 72% 30.22 in 10.0 mi Calm Calm - N/A   Overcast
3:53 AM -2.0 °F -12.2 °F -9.9 °F 69% 30.18 in 10.0 mi SW 4.6 mph - N/A   Scattered Clouds
4:53 AM -4.0 °F - -9.0 °F 79% 30.19 in 10.0 mi Calm Calm - N/A   Clear
5:53 AM 3.9 °F -6.9 °F -0.9 °F 80% 30.16 in 10.0 mi South 5.8 mph - N/A   Clear
6:53 AM -0.0 °F - -5.1 °F 79% 30.18 in 10.0 mi Calm Calm - N/A   Scattered Clouds
7:53 AM 12.0 °F -0.4 °F 6.1 °F 77% 30.17 in 10.0 mi South 9.2 mph - N/A   Overcast
8:53 AM 17.1 °F 6.6 °F 8.1 °F 68% 30.15 in 10.0 mi SSW 8.1 mph - N/A   Overcast
9:53 AM 18.0 °F 7.7 °F 8.1 °F 65% 30.15 in 10.0 mi SSW 8.1 mph - N/A   Overcast
10:53 AM 19.9 °F 10.1 °F 9.0 °F 62% 30.14 in 10.0 mi SSW 8.1 mph - N/A   Overcast
11:53 AM 21.9 °F 14.5 °F 10.9 °F 63% 30.13 in 10.0 mi SSW 5.8 mph - N/A   Overcast
12:53 PM 25.0 °F 20.7 °F 12.9 °F 60% 30.12 in 10.0 mi SSW 3.5 mph - N/A   Overcast
1:53 PM 28.0 °F 21.7 °F 16.0 °F 61% 30.14 in 10.0 mi South 5.8 mph - N/A   Overcast
2:53 PM 30.0 °F 21.7 °F 18.0 °F 61% 30.14 in 10.0 mi SSW 9.2 mph - N/A   Overcast
3:53 PM 30.9 °F 23.5 °F 19.9 °F 64% 30.15 in 10.0 mi SW 8.1 mph - N/A   Partly Cloudy
4:53 PM 28.9 °F 21.9 °F 19.9 °F 69% 30.17 in 10.0 mi SW 6.9 mph - N/A   Mostly Cloudy
5:53 PM 30.0 °F 23.2 °F 21.0 °F 69% 30.19 in 10.0 mi SW 6.9 mph - N/A   Overcast
6:53 PM 30.9 °F 26.2 °F 21.0 °F 67% 30.21 in 10.0 mi SW 4.6 mph - N/A   Overcast
7:53 PM 28.9 °F 22.8 °F 21.0 °F 72% 30.22 in 10.0 mi WSW 5.8 mph - N/A   Overcast
8:53 PM 30.0 °F 23.2 °F 21.9 °F 72% 30.23 in 10.0 mi West 6.9 mph - N/A   Clear
9:53 PM 30.0 °F 25.2 °F 21.9 °F 72% 30.26 in 9.0 mi West 4.6 mph - N/A   Mostly Cloudy
10:53 PM 30.0 °F 21.7 °F 21.9 °F 72% 30.26 in 9.0 mi WSW 9.2 mph - N/A   Clear
11:53 PM 28.4 °F 22.2 °F 21.2 °F 74% 30.24 in 9.0 mi SW 5.8 mph - N/A   Clear